Regional Weather Roundup
Issued by NWS

Home | Current Version | Previous Version | Graphics & Text | Print | Product List | Glossary On
Versions: 1 2 3 4 5 6 7 8 9 10 11 12 13 14 15 16 17 18 19 20 21 22 23 24 25 26 27 28 29 30 31 32 33 34 35 36 37 38 39 40 41 42 43 44 45 46 47 48 49 50
519
ASUS45 KCYS 260110
RWRWY

WYOMING REGIONAL WEATHER ROUNDUP
NATIONAL WEATHER SERVICE CHEYENNE WY
700 PM MDT WED APR 25 2018

NOTE:  "FAIR" INDICATES FEW OR NO CLOUDS BELOW 12,000 FEET
WITH NO SIGNIFICANT WEATHER AND/OR OBSTRUCTIONS TO VISIBILITY.

WYZ001-260200-
YELLOWSTONE NATIONAL PARK

CITY           SKY/WX    TMP DP  RH WIND       PRES   REMARKS
LK YELLOWSTONE   N/A     46  19  34 W6        30.19F
W YELLOWSTONE  NOT AVBL

$$
WYZ002>013-054>058-071-098>099-260200-
NORTHERN WYOMING

CITY           SKY/WX    TMP DP  RH WIND       PRES   REMARKS
JACKSON        FAIR      56  18  22 SW8       30.14R
CODY           FAIR      59  21  23 N18G28    30.06R
GREYBULL       FAIR      64  24  21 N20G32    29.98R
WORLAND        FAIR      64  26  23 N14       29.98R
SHERIDAN       FAIR      59  29  31 NW14      30.01R
BUFFALO        FAIR      57  22  25 N21G31    30.02R
GILLETTE       FAIR      60  29  30 N22       29.97R
HULETT         FAIR      61  23  23 N13G22    29.96R
NEWCASTLE      FAIR      63  23  22 E8        29.87F

$$
WYZ014>020-022>026-101>103-260200-
CENTRAL WYOMING

CITY           SKY/WX    TMP DP  RH WIND       PRES   REMARKS
BIG PINEY      FAIR      58  15  18 NW14      30.12F
PINEDALE       FAIR      55  16  21 NW14G28   30.11F
DUBOIS         FAIR      54  16  22 NW17G29   30.09R
LANDER         FAIR      65  15  14 N7        29.97F
RIVERTON       FAIR      64  13  13 NW15      29.98F
CASPER         FAIR      65   9  11 W22G30    29.97S
DOUGLAS        FAIR      65  19  17 W14       29.94F

$$
WYZ021-027>030-104>119-260200-
SOUTHERN WYOMING

CITY           SKY/WX    TMP DP  RH WIND       PRES   REMARKS
EVANSTON       FAIR      55  20  25 W18       30.19S
KEMMERER       FAIR      54  14  20 W22       30.18S
FORT BRIDGER   FAIR      60   8  12 W25G32    30.19R
ROCK SPRINGS   FAIR      63   6  10 W22G35    30.08F
DIXON          FAIR      62   9  12 SW10G21   30.13F
RAWLINS        FAIR      61  10  13 SW22G29   30.07F
SARATOGA       FAIR      57   5  12 SW15      30.12S
LARAMIE        FAIR      56  11  16 W13       30.08F
CHEYENNE       FAIR      59  24  26 SW15      30.05F
TORRINGTON     FAIR      66  27  23 SE7       29.91F
PINE BLUFFS    FAIR      59  27  29 S10       30.02F

$$




USA.gov is the U.S. government's official web portal to all federal, state and local government web resources and services.